Home   Weather   Copenhagen Basin   Past weeks
Flag for USA

Past Weather in Copenhagen Basin, Idaho, USA — Yesterday and Last 2 Weeks

Now
39 °F

Clear.


Feels Like: 39 °F
Forecast: 73 / 43 °F
Wind: No wind

Location: Pocatello Regional Airport

Current Time: Sep 23, 2019 at 8:05:17 am

Latest Report: Sep 23, 2019 at 6:53 am


Visibility: 10 mi

Pressure: 30.04 "Hg

Humidity: 82%

Dew Point: 34 °F

Location of Copenhagen BasinLocation

Past Weather in Copenhagen Basin — Graph

°F

Copenhagen Basin Temperature Yesterday

Maximum temperature yesterday: 71 °F (at 2:53 pm)
Minimum temperature yesterday: 36 °F (at 6:53 am)
Average temperature yesterday: 56 °F

High & Low Weather Summary for the Past Weeks

 TemperatureHumidityPressure
High90 °F (Sep 15, 3:53 pm)97% (Sep 10, 10:53 pm)30.35 "Hg (Sep 10, 10:53 pm)
Low35 °F (Sep 18, 5:53 am)8% (Sep 15, 3:53 pm)29.52 "Hg (Sep 16, 8:53 pm)
Average58 °F57%29.95 "Hg
* Reported Sep 8 6:53 am — Sep 23 6:53 am, Copenhagen Basin. Weather by CustomWeather, © 2019

Note: Actual official high and low records may vary slightly from our data, if they occured in-between our weather recording intervals... More about our weather records

Advertising

Copenhagen Basin Weather History for the Previous 24 Hours

Scroll right to see more
 ConditionsComfort  
Time TempWeatherWind HumidityBarometerVisibility
6:53 am
Mon, Sep 23
39 °FClear.No wind82%30.04 "Hg10 mi
5:53 am40 °FClear.3 mph83%30.00 "Hg10 mi
4:53 am40 °FClear.No wind80%29.98 "Hg10 mi
3:53 am42 °FClear.No wind76%29.97 "Hg10 mi
2:53 am42 °FClear.7 mph79%29.96 "Hg10 mi
1:53 am45 °FClear.6 mph71%29.95 "Hg10 mi
12:53 am52 °FClear.6 mph53%29.93 "Hg10 mi
11:53 pm
Sun, Sep 22
54 °FClear.5 mph49%29.94 "Hg10 mi
10:53 pm56 °FClear.6 mph46%29.94 "Hg10 mi
9:53 pm57 °FClear.7 mph42%29.96 "Hg10 mi
8:53 pm57 °FClear.6 mph44%29.98 "Hg10 mi
7:53 pm60 °FSunny.8 mph36%29.99 "Hg10 mi
6:53 pm66 °FSunny.14 mph29%29.98 "Hg10 mi
5:53 pm70 °FSunny.12 mph23%29.97 "Hg10 mi
4:53 pm71 °FPassing clouds.12 mph24%29.98 "Hg10 mi
3:53 pm71 °FPassing clouds.12 mph26%29.98 "Hg10 mi
2:53 pm71 °FPassing clouds.14 mph26%30.00 "Hg10 mi
1:53 pm70 °FPassing clouds.15 mph27%30.01 "Hg10 mi
12:53 pm66 °FPassing clouds.3 mph31%30.03 "Hg10 mi
11:53 am66 °FSunny.9 mph32%30.06 "Hg10 mi
10:53 am63 °FSunny.7 mph34%30.08 "Hg10 mi
9:53 am57 °FSunny.No wind49%30.10 "Hg10 mi
8:53 am47 °FSunny.3 mph74%30.12 "Hg10 mi
Weather by CustomWeather, © 2019

See weather overview